E27ASY-4 Weather Reports


Display with metric or nautical units.
time (UTC)temp
F
wind
direction
speed
MPH
gust
MPH
rain 1hr
in
rain 24hr
in
rain mn
in
humidity
%
barometer
mb
20260504141034 82 0 0.0 0.0 0.00 0.00 0.00 99 1008.0
20260504140512 82 0 0.0 0.0 0.00 0.00 0.00 99 1007.0
20260504130610 82 0 0.0 0.0 0.00 0.00 0.00 99 1006.0
20260504120146 83 0 0.0 0.0 0.00 0.00 0.00 99 1005.0
20260504110244 83 0 0.0 0.0 0.00 0.00 0.00 99 1004.0
20260504100342 85 0 0.0 0.0 0.00 0.00 0.00 99 1003.0
20260504081621 90 0 0.0 0.0 0.00 0.00 0.00 99 1004.0
20260504081059 89 0 0.0 0.0 0.00 0.00 0.00 99 1004.0
20260504080537 89 0 0.0 0.0 0.00 0.00 0.00 99 1004.0
20260504070113 83 0 0.0 0.0 0.00 0.00 0.00 99 1005.0
20260504060211 83 0 0.0 0.0 0.00 0.00 0.00 99 1006.0
20260504050309 106 0 0.0 0.0 0.00 0.00 0.00 37 1006.0
20260504045747 105 0 0.0 0.0 0.00 0.00 0.00 38 1006.0
20260504045225 104 0 0.0 0.0 0.00 0.00 0.00 38 1006.0
20260504044703 105 0 0.0 0.0 0.00 0.00 0.00 37 1007.0
20260504044141 106 0 0.0 0.0 0.00 0.00 0.00 38 1006.0
20260504043619 105 0 0.0 0.0 0.00 0.00 0.00 38 1007.0
20260504043057 105 0 0.0 0.0 0.00 0.00 0.00 39 1007.0
20260504042535 105 0 0.0 0.0 0.00 0.00 0.00 39 1007.0
20260504042013 104 0 0.0 0.0 0.00 0.00 0.00 40 1007.0
20260504041451 103 0 0.0 0.0 0.00 0.00 0.00 43 1007.0
20260504040929 102 0 0.0 0.0 0.00 0.00 0.00 46 1007.0
20260504040407 101 0 0.0 0.0 0.00 0.00 0.00 46 1007.0
20260504035845 102 0 0.0 0.0 0.00 0.00 0.00 44 1007.0
20260504035323 103 0 0.0 0.0 0.00 0.00 0.00 44 1007.0
20260504034800 103 0 0.0 0.0 0.00 0.00 0.00 44 1007.0
20260504034238 104 0 0.0 0.0 0.00 0.00 0.00 43 1007.0
20260504033716 104 0 0.0 0.0 0.00 0.00 0.00 43 1007.0
20260504033154 104 0 0.0 0.0 0.00 0.00 0.00 43 1007.0
20260504032632 105 0 0.0 0.0 0.00 0.00 0.00 41 1007.0
20260504032110 105 0 0.0 0.0 0.00 0.00 0.00 42 1007.0
20260504031549 104 0 0.0 0.0 0.00 0.00 0.00 43 1007.0
20260504031026 104 0 0.0 0.0 0.00 0.00 0.00 43 1008.0
20260504030504 103 0 0.0 0.0 0.00 0.00 0.00 43 1008.0
20260504025942 103 0 0.0 0.0 0.00 0.00 0.00 44 1008.0
20260504025420 103 0 0.0 0.0 0.00 0.00 0.00 46 1008.0
20260504024858 102 0 0.0 0.0 0.00 0.00 0.00 45 1008.0
20260504024336 101 0 0.0 0.0 0.00 0.00 0.00 47 1008.0
20260504023814 101 0 0.0 0.0 0.00 0.00 0.00 47 1008.0
20260504023252 101 0 0.0 0.0 0.00 0.00 0.00 49 1008.0
20260504022730 100 0 0.0 0.0 0.00 0.00 0.00 49 1008.0
20260504022208 100 0 0.0 0.0 0.00 0.00 0.00 50 1008.0
20260504021646 99 0 0.0 0.0 0.00 0.00 0.00 51 1008.0
20260504021124 99 0 0.0 0.0 0.00 0.00 0.00 52 1008.0
20260504020602 99 0 0.0 0.0 0.00 0.00 0.00 53 1008.0
20260504020040 98 0 0.0 0.0 0.00 0.00 0.00 54 1008.0
20260504015518 98 0 0.0 0.0 0.00 0.00 0.00 57 1008.0
20260504014956 97 0 0.0 0.0 0.00 0.00 0.00 57 1008.0
20260504014434 97 0 0.0 0.0 0.00 0.00 0.00 58 1008.0
20260504013912 97 0 0.0 0.0 0.00 0.00 0.00 59 1008.0
20260504013350 96 0 0.0 0.0 0.00 0.00 0.00 60 1008.0
20260504012828 95 0 0.0 0.0 0.00 0.00 0.00 61 1008.0
20260504012306 95 0 0.0 0.0 0.00 0.00 0.00 63 1008.0
20260504011744 94 0 0.0 0.0 0.00 0.00 0.00 64 1008.0
20260504011222 94 0 0.0 0.0 0.00 0.00 0.00 64 1008.0
20260504010700 93 0 0.0 0.0 0.00 0.00 0.00 66 1007.0
20260504010138 93 0 0.0 0.0 0.00 0.00 0.00 67 1007.0
20260504005616 92 0 0.0 0.0 0.00 0.00 0.00 69 1007.0
20260504005054 92 0 0.0 0.0 0.00 0.00 0.00 70 1007.0
20260504004532 91 0 0.0 0.0 0.00 0.00 0.00 71 1007.0
20260504004010 90 0 0.0 0.0 0.00 0.00 0.00 72 1007.0
20260504003448 89 0 0.0 0.0 0.00 0.00 0.00 73 1007.0
20260504002932 89 0 0.0 0.0 0.00 0.00 0.00 75 1007.0
20260504002404 88 0 0.0 0.0 0.00 0.00 0.00 75 1007.0
20260504001842 88 0 0.0 0.0 0.00 0.00 0.00 75 1007.0
20260504001320 88 0 0.0 0.0 0.00 0.00 0.00 76 1007.0
20260504000758 87 0 0.0 0.0 0.00 0.00 0.00 76 1007.0
20260504000236 87 0 0.0 0.0 0.00 0.00 0.00 77 1007.0
20260503235714 86 0 0.0 0.0 0.00 0.00 0.00 78 1007.0
20260503235152 85 0 0.0 0.0 0.00 0.00 0.00 79 1007.0
20260503234630 85 0 0.0 0.0 0.00 0.00 0.00 80 1007.0
20260503234108 85 0 0.0 0.0 0.00 0.00 0.00 80 1007.0
20260503233547 84 0 0.0 0.0 0.00 0.00 0.00 80 1007.0
20260503233024 84 0 0.0 0.0 0.00 0.00 0.00 80 1006.0
20260503232502 84 0 0.0 0.0 0.00 0.00 0.00 80 1006.0
20260503231940 84 0 0.0 0.0 0.00 0.00 0.00 80 1006.0
20260503231418 84 0 0.0 0.0 0.00 0.00 0.00 80 1006.0
20260503230856 84 0 0.0 0.0 0.00 0.00 0.00 80 1006.0
20260503230334 84 0 0.0 0.0 0.00 0.00 0.00 80 1006.0
20260503225812 84 0 0.0 0.0 0.00 0.00 0.00 80 1006.0
20260503225250 84 0 0.0 0.0 0.00 0.00 0.00 79 1006.0
20260503224728 84 0 0.0 0.0 0.00 0.00 0.00 79 1006.0
20260503224206 84 0 0.0 0.0 0.00 0.00 0.00 79 1006.0
20260503223644 84 0 0.0 0.0 0.00 0.00 0.00 78 1006.0
20260503223122 84 0 0.0 0.0 0.00 0.00 0.00 78 1006.0
20260503222600 84 0 0.0 0.0 0.00 0.00 0.00 78 1006.0
20260503222038 85 0 0.0 0.0 0.00 0.00 0.00 77 1006.0
20260503221516 85 0 0.0 0.0 0.00 0.00 0.00 77 1006.0
20260503220954 85 0 0.0 0.0 0.00 0.00 0.00 76 1006.0
20260503220432 85 0 0.0 0.0 0.00 0.00 0.00 76 1006.0
20260503215910 85 0 0.0 0.0 0.00 0.00 0.00 76 1006.0
20260503215348 85 0 0.0 0.0 0.00 0.00 0.00 76 1006.0
20260503214826 85 0 0.0 0.0 0.00 0.00 0.00 76 1005.0
20260503214304 85 0 0.0 0.0 0.00 0.00 0.00 76 1006.0
20260503213742 85 0 0.0 0.0 0.00 0.00 0.00 76 1006.0
20260503213220 85 0 0.0 0.0 0.00 0.00 0.00 76 1005.0
20260503212658 85 0 0.0 0.0 0.00 0.00 0.00 75 1005.0
20260503212136 85 0 0.0 0.0 0.00 0.00 0.00 75 1005.0
20260503211614 85 0 0.0 0.0 0.00 0.00 0.00 75 1005.0
20260503211052 85 0 0.0 0.0 0.00 0.00 0.00 75 1005.0
20260503210530 85 0 0.0 0.0 0.00 0.00 0.00 75 1005.0
20260503210008 85 0 0.0 0.0 0.00 0.00 0.00 76 1005.0
20260503205446 85 0 0.0 0.0 0.00 0.00 0.00 75 1005.0
20260503204924 85 0 0.0 0.0 0.00 0.00 0.00 75 1005.0
20260503204402 85 0 0.0 0.0 0.00 0.00 0.00 75 1005.0
20260503203840 85 0 0.0 0.0 0.00 0.00 0.00 75 1005.0
20260503203318 85 0 0.0 0.0 0.00 0.00 0.00 74 1005.0
20260503202756 85 0 0.0 0.0 0.00 0.00 0.00 74 1005.0
20260503202234 85 0 0.0 0.0 0.00 0.00 0.00 74 1005.0
20260503201712 85 0 0.0 0.0 0.00 0.00 0.00 74 1005.0
20260503201150 85 0 0.0 0.0 0.00 0.00 0.00 74 1005.0
20260503200628 85 0 0.0 0.0 0.00 0.00 0.00 74 1005.0
20260503200106 85 0 0.0 0.0 0.00 0.00 0.00 74 1005.0
20260503195544 85 0 0.0 0.0 0.00 0.00 0.00 74 1005.0
20260503195022 85 0 0.0 0.0 0.00 0.00 0.00 74 1005.0
20260503194500 85 0 0.0 0.0 0.00 0.00 0.00 74 1005.0
20260503193938 85 0 0.0 0.0 0.00 0.00 0.00 74 1005.0
20260503193416 85 0 0.0 0.0 0.00 0.00 0.00 74 1005.0
20260503192854 85 0 0.0 0.0 0.00 0.00 0.00 74 1005.0
20260503192332 85 0 0.0 0.0 0.00 0.00 0.00 74 1005.0
20260503191810 86 0 0.0 0.0 0.00 0.00 0.00 73 1005.0
20260503191248 86 0 0.0 0.0 0.00 0.00 0.00 74 1005.0
20260503190726 86 0 0.0 0.0 0.00 0.00 0.00 74 1005.0
20260503190204 86 0 0.0 0.0 0.00 0.00 0.00 74 1005.0
20260503185642 86 0 0.0 0.0 0.00 0.00 0.00 74 1005.0
20260503185120 86 0 0.0 0.0 0.00 0.00 0.00 74 1005.0
20260503184558 86 0 0.0 0.0 0.00 0.00 0.00 75 1005.0
20260503184036 86 0 0.0 0.0 0.00 0.00 0.00 75 1005.0
20260503183514 87 0 0.0 0.0 0.00 0.00 0.00 75 1006.0
20260503182952 87 0 0.0 0.0 0.00 0.00 0.00 76 1006.0
20260503182431 87 0 0.0 0.0 0.00 0.00 0.00 75 1006.0
20260503181908 87 0 0.0 0.0 0.00 0.00 0.00 75 1006.0
20260503181346 87 0 0.0 0.0 0.00 0.00 0.00 75 1006.0
20260503180824 87 0 0.0 0.0 0.00 0.00 0.00 74 1006.0
20260503180303 87 0 0.0 0.0 0.00 0.00 0.00 74 1006.0
20260503175740 87 0 0.0 0.0 0.00 0.00 0.00 74 1006.0
20260503175218 87 0 0.0 0.0 0.00 0.00 0.00 74 1006.0
20260503174656 87 0 0.0 0.0 0.00 0.00 0.00 74 1006.0
20260503174134 87 0 0.0 0.0 0.00 0.00 0.00 73 1006.0
20260503173612 88 0 0.0 0.0 0.00 0.00 0.00 72 1006.0
20260503173050 88 0 0.0 0.0 0.00 0.00 0.00 72 1006.0
20260503172528 88 0 0.0 0.0 0.00 0.00 0.00 71 1006.0
20260503172006 88 0 0.0 0.0 0.00 0.00 0.00 72 1006.0
20260503171444 88 0 0.0 0.0 0.00 0.00 0.00 71 1006.0
20260503170922 88 0 0.0 0.0 0.00 0.00 0.00 71 1006.0
20260503170400 88 0 0.0 0.0 0.00 0.00 0.00 71 1006.0
20260503150540 90 0 0.0 0.0 0.00 0.00 0.00 61 1005.0